Flag for U.S.A. Weather past 2 weeks in Oceanside, California, U.S.A.

Now
74 °F

Sunny.


Feels Like: 77 °F
Forecast: 64 / 75 °F
Wind: 10 mph from Southwest

Location: Oceanside Weather Reporting Station

Current Time: Sep 2, 2015 at 4:57:45 PM

Latest Report: Sep 2, 2015 at 3:52 PM


Visibility: 10 mi

Pressure: 29.90 "Hg

Humidity: 57%

Dew point: 58 °F

Location of OceansideLocation

Historic Weather in Oceanside — Graph

°F

Oceanside temperature yesterday

Maximum temperature yesterday: 78 °F (at 12:52 PM)
Minimum temperature yesterday: 70 °F (at 1:52 AM)
Average temperature yesterday: 72 °F

Past Weeks' High & Low Weather Summary

 TemperatureHumidityPressure
High89 °F (Aug 28, 9:52 AM)91% (Aug 27, 5:52 AM)29.98 "Hg (Aug 27, 5:52 AM)
Low64 °F (Aug 18, 11:52 PM)28% (Aug 28, 9:52 AM)29.80 "Hg (Aug 28, 4:52 PM)
Average74 °F72%29.90 "Hg
* Reported Aug 18 2:52 PM — Sep 2 2:52 PM, Oceanside, Weather by CustomWeather, © 2015

Note: Actual official high and low records may vary slightly from our data, if they occured in-between our weather recording intervals... More about our weather records

Advertising

Oceanside weather history for previous 24 hours

 ConditionsComfort  
Time TempWeatherWind HumidityBarometerVisibility
2:52 PM
Wed, Sep 2
75 °FSunny.10 mph55%29.92 "Hg10 mi
1:52 PM75 °FSunny.12 mph55%29.94 "Hg10 mi
12:52 PM76 °FSunny.13 mph56%29.95 "Hg10 mi
11:52 AM76 °FSunny.9 mph56%29.96 "Hg10 mi
10:52 AM75 °FScattered clouds.10 mph60%29.97 "Hg10 mi
9:52 AM73 °FPartly sunny.7 mph64%29.96 "Hg10 mi
8:52 AM72 °FMore clouds than sun.6 mph66%29.97 "Hg10 mi
7:52 AM71 °FOvercast.7 mph71%29.96 "Hg10 mi
6:52 AM70 °FOvercast.No wind73%29.95 "Hg10 mi
5:52 AM70 °FOvercast.3 mph73%29.94 "Hg10 mi
4:52 AM70 °FOvercast.3 mph73%29.94 "Hg10 mi
3:52 AM70 °FOvercast.3 mph73%29.93 "Hg10 mi
2:52 AM70 °FOvercast.6 mph73%29.95 "Hg10 mi
1:52 AM71 °FOvercast.6 mph73%29.95 "Hg10 mi
12:52 AM71 °FOvercast.3 mph73%29.96 "Hg10 mi
11:52 PM
Tue, Sep 1
71 °FOvercast.5 mph73%29.95 "Hg10 mi
10:52 PM71 °FOvercast.5 mph73%29.95 "Hg10 mi
9:52 PM71 °FOvercast.No wind73%29.94 "Hg10 mi
8:52 PM71 °FOvercast.3 mph73%29.93 "Hg10 mi
7:52 PM71 °FOvercast.5 mph73%29.91 "Hg10 mi
6:52 PM71 °FOvercast.6 mph71%29.90 "Hg10 mi
5:52 PM71 °FPartly sunny.9 mph71%29.89 "Hg10 mi
4:52 PM72 °FPartly sunny.9 mph68%29.89 "Hg10 mi
Weather by CustomWeather, © 2015

See weather overviewHow to use our weather pages